Flag for Canada Weather past 2 weeks in Pond Inlet, Nunavut Territory, Canada

Now
-2 °F

Light snow. Overcast.


Feels Like: -16 °F
Forecast: -16 / 0 °F
Wind: 7 mph from South

Location: Pond Inlet


UV Index: 0 (Low)

Visibility: 4 mi


Pressure: 29.72 "Hg

Humidity: 84%

Dew point: -6 °F

Location of Pond InletLocation

Historic Weather in Pond Inlet

°F

Pond Inlet temperature yesterday

Maximum temperature yesterday: 1 °F (at 1:00 PM)
Minimum temperature yesterday: -8 °F (at 2:00 AM)
Average temperature yesterday: -3 °F

Past Weeks' High & Low Weather Summary

 TemperatureHumidityPressure
High12 °F (Apr 10, 3:00 PM)84% (Apr 1, 10:03 PM)30.19 "Hg (Apr 1, 10:03 PM)
Low-22 °F (Apr 6, 3:00 AM)40% (Apr 10, 6:00 PM)29.40 "Hg (Apr 11, 2:00 AM)
Average-8 °F71%29.89 "Hg
* Reported Apr 1 10:03 PM — Apr 16 10:52 PM, Pond Inlet, Weather by CustomWeather, © 2014

Note: Actual official high and low records may vary slightly from our data, if they occured in-between our weather recording intervals... More about our weather records

Advertising

Historic Weather Conditions — Data for Previous 24 hours

 ConditionsComfort  
Time TempWeatherWind HumidityBarometerVisibility
10:52 PM
Apr 16
-2 °FLight snow. Overcast.6 mph84%29.72 "Hg5 mi
10:00 PM-4 °FLight snow. Overcast.5 mph84%29.75 "Hg5 mi
9:59 PM-4 °FLight snow. Overcast.5 mph84%29.75 "Hg5 mi
9:00 PM-2 °FOvercast.5 mph77%29.77 "Hg9 mi
8:00 PM-4 °FScattered clouds.3 mph84%29.79 "Hg9 mi
7:00 PM-2 °FPassing clouds.5 mph77%29.80 "Hg9 mi
6:00 PM1 °FSunny.2 mph78%29.81 "Hg9 mi
5:00 PM0 °FPartly sunny.3 mph78%29.82 "Hg20 mi
4:00 PM0 °FScattered clouds.3 mph78%29.83 "Hg20 mi
3:00 PM1 °FPassing clouds.2 mph78%29.84 "Hg20 mi
2:00 PM0 °FPassing clouds.5 mph78%29.85 "Hg20 mi
1:00 PM1 °FPassing clouds.3 mph78%29.86 "Hg20 mi
12:00 PM0 °FPassing clouds.3 mph78%29.87 "Hg20 mi
11:00 AM-4 °FPassing clouds.6 mph84%29.88 "Hg20 mi
10:00 AM-4 °FSunny.7 mph77%29.89 "Hg9 mi
9:00 AM-2 °FSunny.8 mph71%29.88 "Hg9 mi
8:00 AM-4 °FSunny.6 mph77%29.89 "Hg9 mi
7:00 AM-4 °FSunny.10 mph77%29.89 "Hg9 mi
6:00 AM-8 °FSunny.10 mph77%29.88 "Hg9 mi
5:00 AM-8 °FSunny.10 mph70%29.88 "Hg9 mi
4:00 AM-6 °FSunny.8 mph77%29.88 "Hg9 mi
3:00 AM-6 °FClear.12 mph70%29.88 "Hg9 mi
2:00 AM-8 °FClear.8 mph77%29.88 "Hg9 mi
1:00 AM-6 °FClear.7 mph77%29.88 "Hg9 mi
12:00 AM-6 °FClear.5 mph77%29.89 "Hg9 mi
Weather by CustomWeather, © 2014

See weather overview